Weather History for Berlin, NH

Change the Weather History Date:

Wednesday, November 27, 2013

  Actual Average Record
Temperature  
Mean Temperature 38 °F -  
Max Temperature 46 °F 35 °F 55 °F (1999)
Min Temperature 30 °F 19 °F 5 °F (2004)
Degree Days  
Heating Degree Days 27    
Moisture  
Dew Point 37 °F    
Average Humidity 93    
Maximum Humidity 100    
Minimum Humidity 82    
Precipitation  
Precipitation 0.95 in - - ()
Sea Level Pressure  
Sea Level Pressure 29.47 in    
Wind  
Wind Speed 5 mph (NW)    
Max Wind Speed 13 mph    
Max Gust Speed 24 mph    
Visibility 5 miles    
Events Rain , Snow    
Averages and records for this station are not official NWS values.
T = Trace of Precipitation, MM = Missing Value Source: NWS Daily Summary

Daily Weather History Graph

Daily Weather History Graph

Search for Another Location

Airport:

Trip Planner

Search our weather history database for the weather conditions in past years. The results will help you decide how hot, cold, wet, or windy it might be!

Date:

Astronomy

Nov. 27, 2013 Rise Set
Actual Time 6:56 AM EST 4:07 PM EST
Civil Twilight 6:24 AM EST 4:40 PM EST
Nautical Twilight 5:48 AM EST 5:16 PM EST
Astronomical Twilight 5:13 AM EST 5:51 PM EST
Moon 12:42 AM EST (11/27) 12:55 PM EST (11/27)
Length of Visible Light 10h 15m
Length of Day
9h 10m
Waning Crescent, 32% of the Moon is Illuminated
Nov 27
Waning Crescent
Dec 2
New
Dec 9
First Quarter
Dec 17
Full
Dec 25
Last Quarter

Hourly Weather History & Observations

Time (EST) Temp. Windchill Dew Point Humidity Pressure Visibility Wind Dir Wind Speed Gust Speed Precip Events Conditions
12:07 AM 30.0 °F - 28.0 °F 92% 30.03 in 3.0 mi Calm Calm - 0.01 in Snow Light Snow
12:29 AM 32.0 °F 24.8 °F 27.0 °F 82% 30.02 in 9.0 mi SSE 8.1 mph - 0.01 in   Overcast
12:52 AM 32.0 °F 25.6 °F 27.0 °F 82% 30.06 in 9.0 mi SSE 6.9 mph - 0.01 in Snow Light Snow
1:52 AM 33.1 °F 26.9 °F 28.9 °F 85% 30.01 in 10.0 mi SSE 6.9 mph - 0.00 in   Overcast
2:06 AM 34.0 °F 29.8 °F 28.9 °F 82% 29.96 in 10.0 mi South 4.6 mph - 0.00 in Rain Light Rain
2:13 AM 34.0 °F 29.8 °F 30.0 °F 85% 29.95 in 10.0 mi Variable 4.6 mph - 0.00 in   Overcast
2:26 AM 34.0 °F 25.0 °F 30.0 °F 85% 29.93 in 10.0 mi SSE 12.7 mph - 0.01 in   Overcast
2:52 AM 34.0 °F 27.2 °F 30.0 °F 85% 29.95 in 10.0 mi ESE 8.1 mph - 0.01 in   Overcast
3:25 AM 34.0 °F 29.8 °F 30.9 °F 89% 29.88 in 10.0 mi South 4.6 mph - 0.00 in Rain Light Rain
3:52 AM 34.0 °F 31.0 °F 32.0 °F 92% 29.89 in 6.0 mi NNW 3.5 mph - 0.03 in Rain Rain
4:05 AM 33.1 °F 28.7 °F 32.0 °F 96% 29.83 in 8.0 mi North 4.6 mph - 0.01 in Rain Light Freezing Rain
4:52 AM 33.1 °F 26.9 °F 30.9 °F 92% 29.79 in 4.0 mi North 6.9 mph - 0.03 in Rain Light Freezing Rain
5:07 AM 32.0 °F 24.2 °F 30.9 °F 96% 29.72 in 4.0 mi North 9.2 mph - 0.01 in Rain Light Freezing Rain
5:25 AM 33.1 °F 28.7 °F 32.0 °F 96% 29.70 in 4.0 mi WNW 4.6 mph - 0.03 in Rain Light Freezing Rain
5:52 AM 34.0 °F 28.8 °F 33.1 °F 96% 29.72 in 4.0 mi NNW 5.8 mph - 0.07 in Rain Rain
6:49 AM 33.8 °F 27.7 °F 33.8 °F 100% 29.60 in 4.0 mi NNW 6.9 mph - 0.12 in Rain Rain
6:52 AM 34.0 °F 28.0 °F 33.1 °F 96% 29.63 in 4.0 mi NW 6.9 mph - 0.12 in Rain Light Rain
7:13 AM 36.0 °F - 35.1 °F 97% 29.56 in 4.0 mi Calm Calm - 0.03 in Rain Light Rain
7:20 AM 36.0 °F 29.6 °F 35.1 °F 97% 29.55 in 4.0 mi WNW 8.1 mph - 0.04 in Rain Light Rain
7:52 AM 37.0 °F 33.3 °F 36.0 °F 96% 29.53 in 2.5 mi WNW 4.6 mph - 0.14 in Rain Rain
8:13 AM 36.0 °F 30.3 °F 35.1 °F 97% 29.49 in 3.0 mi NNW 6.9 mph - 0.03 in Rain Light Rain
8:48 AM 44.6 °F 43.1 °F 42.8 °F 93% 29.46 in 4.0 mi Variable 3.5 mph - 0.07 in Rain Light Rain
8:52 AM 43.0 °F 40.3 °F 41.0 °F 93% 29.48 in 4.0 mi Variable 4.6 mph - 0.08 in Rain Rain
9:10 AM 42.1 °F 37.7 °F 39.9 °F 92% 29.43 in 6.0 mi NW 6.9 mph - 0.01 in Rain Light Rain
9:26 AM 42.1 °F 38.4 °F 41.0 °F 96% 29.43 in 4.0 mi NNW 5.8 mph - 0.04 in Rain Rain
9:52 AM 46.0 °F 42.5 °F 45.0 °F 96% 29.43 in 4.0 mi South 6.9 mph - 0.07 in Rain Light Rain
10:04 AM 46.9 °F - 45.0 °F 93% 29.38 in 4.0 mi SSE 8.1 mph - 0.02 in Rain Rain
10:52 AM 46.0 °F 44.8 °F 45.0 °F 96% 29.35 in 5.0 mi NNW 3.5 mph - 0.05 in Rain Light Rain
11:04 AM 46.0 °F 43.1 °F 44.1 °F 93% 29.30 in 2.0 mi NW 5.8 mph - 0.01 in Rain Light Rain
11:13 AM 46.0 °F - 45.0 °F 96% 29.30 in 5.0 mi Calm Calm - 0.01 in Rain Light Rain
11:52 AM 46.0 °F 43.9 °F 45.0 °F 96% 29.32 in 3.0 mi NW 4.6 mph - 0.03 in Rain Light Rain
11:54 AM 45.0 °F 42.6 °F 45.0 °F 100% 29.29 in 1.8 mi NW 4.6 mph - 0.00 in Rain Rain
12:09 PM 45.0 °F 42.6 °F 44.1 °F 97% 29.30 in 3.0 mi NNW 4.6 mph - 0.02 in Rain Light Rain
12:18 PM 45.0 °F 43.5 °F 45.0 °F 100% 29.30 in 3.0 mi NW 3.5 mph - 0.03 in Rain Light Rain
12:25 PM 46.0 °F 42.5 °F 45.0 °F 96% 29.29 in 2.0 mi NNW 6.9 mph - 0.03 in Rain Light Rain
12:34 PM 45.0 °F 42.6 °F 44.1 °F 97% 29.26 in 5.0 mi ENE 4.6 mph - 0.04 in Rain Light Rain
12:40 PM 45.0 °F 43.5 °F 45.0 °F 100% 29.25 in 1.5 mi Variable 3.5 mph - 0.04 in Rain Light Rain
12:43 PM 45.0 °F 42.6 °F 44.1 °F 97% 29.25 in 0.8 mi West 4.6 mph - 0.04 in Rain Light Rain
12:52 PM 45.0 °F 42.6 °F 44.1 °F 97% 29.28 in 1.2 mi WNW 4.6 mph - 0.04 in Rain Light Rain
12:57 PM 45.0 °F 41.8 °F 44.1 °F 97% 29.26 in 2.0 mi NW 5.8 mph - 0.00 in Rain Light Rain
1:05 PM 46.0 °F 44.8 °F 45.0 °F 96% 29.26 in 6.0 mi North 3.5 mph - 0.00 in Rain Light Rain
1:12 PM 45.0 °F 41.8 °F 44.1 °F 97% 29.25 in 4.0 mi North 5.8 mph - 0.00 in Rain Light Rain
1:29 PM 45.0 °F 41.2 °F 45.0 °F 100% 29.27 in 5.0 mi North 6.9 mph - 0.02 in Rain Light Rain
1:39 PM 46.0 °F 43.1 °F 44.1 °F 93% 29.26 in 5.0 mi NE 5.8 mph - 0.02 in Rain Light Rain
1:52 PM 46.0 °F - 45.0 °F 96% 29.33 in 6.0 mi Calm Calm - 0.03 in Rain Light Rain
2:09 PM 46.0 °F - 45.0 °F 96% 29.26 in 7.0 mi Calm Calm - 0.02 in Rain Light Rain
2:40 PM 45.0 °F - 43.0 °F 93% 29.30 in 1.8 mi Calm Calm - 0.07 in Rain Rain
2:48 PM 44.6 °F 42.2 °F 42.8 °F 93% 29.28 in 2.5 mi Variable 4.6 mph - 0.08 in Rain Rain
2:52 PM 45.0 °F 42.6 °F 43.0 °F 93% 29.31 in 3.0 mi Variable 4.6 mph - 0.09 in Rain Rain
3:31 PM 44.1 °F - 42.1 °F 93% 29.28 in 10.0 mi Calm Calm - 0.01 in   Overcast
3:52 PM 42.1 °F - 39.9 °F 92% 29.31 in 10.0 mi Calm Calm - 0.01 in Rain Light Rain
4:15 PM 42.1 °F 39.2 °F 39.9 °F 92% 29.29 in 10.0 mi West 4.6 mph - 0.00 in Rain Light Rain
4:52 PM 39.9 °F 35.8 °F 37.9 °F 93% 29.32 in 6.0 mi NW 5.8 mph - 0.03 in Rain Light Rain
5:06 PM 39.0 °F 34.8 °F 37.9 °F 96% 29.28 in 8.0 mi NNW 5.8 mph - 0.01 in Rain Light Rain
5:52 PM 37.0 °F 32.4 °F 35.1 °F 93% 29.34 in 9.0 mi WNW 5.8 mph - 0.01 in Rain Light Rain
6:26 PM 36.0 °F 33.3 °F 35.1 °F 97% 29.27 in 6.0 mi NNW 3.5 mph - 0.02 in Rain Light Rain
6:42 PM 36.0 °F - 35.1 °F 97% 29.32 in 7.0 mi Calm Calm - 0.03 in Rain Light Rain
6:52 PM 36.0 °F 32.1 °F 34.0 °F 93% 29.34 in 9.0 mi Variable 4.6 mph - 0.03 in Rain Light Rain
7:02 PM 35.1 °F 30.1 °F 33.1 °F 92% 29.30 in 10.0 mi Variable 5.8 mph - 0.00 in Rain Light Rain
7:52 PM 34.0 °F 31.0 °F 32.0 °F 92% 29.33 in 7.0 mi Variable 3.5 mph - 0.02 in Rain Light Rain
8:52 PM 33.1 °F 26.1 °F 30.0 °F 89% 29.38 in 1.8 mi West 8.1 mph 18.4 mph 0.04 in Snow Light Snow
9:02 PM 33.1 °F 25.5 °F 28.9 °F 85% 29.35 in 3.0 mi WNW 9.2 mph 18.4 mph 0.00 in Snow Light Snow
9:13 PM 33.1 °F 24.9 °F 28.9 °F 85% 29.35 in 6.0 mi WNW 10.4 mph 17.3 mph 0.00 in Snow Light Snow
9:38 PM 32.0 °F 24.8 °F 28.9 °F 88% 29.37 in 2.5 mi WNW 8.1 mph 16.1 mph 0.00 in Snow Light Snow
9:52 PM 32.0 °F 23.6 °F 28.0 °F 85% 29.39 in 2.5 mi WNW 10.4 mph 24.2 mph 0.01 in Snow Light Snow
10:03 PM 32.0 °F 23.6 °F 28.0 °F 85% 29.34 in 3.0 mi NW 10.4 mph 19.6 mph 0.00 in Snow Light Snow
10:52 PM 32.0 °F 24.8 °F 27.0 °F 82% 29.38 in 10.0 mi West 8.1 mph - 0.00 in   Overcast
11:22 PM 32.0 °F 24.8 °F 27.0 °F 82% 29.35 in 10.0 mi West 8.1 mph 20.7 mph N/A   Overcast
11:52 PM 32.0 °F 25.6 °F 27.0 °F 82% 29.38 in 10.0 mi Variable 6.9 mph - N/A   Overcast